FW6922 Weather Reports


time (UTC)temp
F
wind
direction
speed
knots
gust
knots
rain 1hr
in
rain 24hr
in
rain mn
in
humidity
%
barometer
mb
20260506011530 71 281 7.8 12.2 0.00 0.00 0.00 52
20260506010030 71 281 8.7 13.9 0.00 0.00 0.00 50
20260506004530 73 283 7.8 13.9 0.00 0.00 0.00 49
20260506003029 73 283 7.8 12.2 0.00 0.00 0.00 48
20260506001645 74 285 8.7 13.0 0.00 0.00 0.00 47
20260505233106 75 283 8.7 12.2 0.00 0.00 0.00 46
20260505231606 75 287 9.6 13.0 0.00 0.00 0.00 46
20260505230032 75 287 8.7 13.0 0.00 0.00 0.00 46
20260505224531 75 287 8.7 12.2 0.00 0.00 0.00 46
20260505223036 75 287 8.7 12.2 0.00 0.00 0.00 46
20260505221531 75 288 7.8 12.2 0.00 0.00 0.00 46
20260505214646 75 288 7.0 11.3 0.00 0.00 0.00 46
20260505211530 75 292 7.0 12.2 0.00 0.00 0.00 46
20260505210029 74 287 6.1 9.6 0.00 0.00 0.00 46
20260505204531 74 286 7.0 10.4 0.00 0.00 0.00 47
20260505203032 73 287 6.1 10.4 0.00 0.00 0.00 47
20260505201528 73 285 7.0 13.9 0.00 0.00 0.00 47
20260505200031 72 285 5.2 9.6 0.00 0.00 0.00 48
20260505193030 71 277 7.0 13.0 0.00 0.00 0.00 51
20260505191531 70 288 7.8 12.2 0.00 0.00 0.00 51
20260505190030 70 282 7.8 14.8 0.00 0.00 0.00 53
20260505184606 69 277 7.0 13.9 0.00 0.00 0.00 55
20260505183103 68 286 8.7 14.8 0.00 0.00 0.00 55
20260505181529 67 287 8.7 14.8 0.00 0.00 0.00 57
20260505180104 67 282 8.7 13.9 0.00 0.00 0.00 58
20260505174607 66 285 8.7 13.0 0.00 0.00 0.00 59
20260505173029 65 284 7.8 13.0 0.00 0.00 0.00 61
20260505171531 64 278 7.0 13.0 0.00 0.00 0.00 63
20260505170028 63 286 7.8 12.2 0.00 0.00 0.00 65
20260505164530 62 288 7.8 12.2 0.00 0.00 0.00 67
20260505163030 61 279 7.0 12.2 0.00 0.00 0.00 70
20260505161530 60 288 7.8 12.2 0.00 0.00 0.00 72
20260505153028 57 279 1.7 4.3 0.00 0.00 0.00 83
20260505151532 55 247 0.9 3.5 0.00 0.00 0.00 86
20260505150104 53 135 0.9 2.6 0.00 0.00 0.00 88
20260505124530 50 276 1.7 3.5 0.00 0.00 0.00 87
20260505123106 50 235 0.9 4.3 0.00 0.00 0.00 86
20260505120030 51 219 1.7 3.5 0.00 0.00 0.00 84
20260505114531 53 270 0.9 4.3 0.00 0.00 0.00 84
20260505101531 56 250 1.7 4.3 0.00 0.00 0.00 80
20260505100107 56 245 2.6 6.1 0.00 0.00 0.00 80
20260505093030 58 237 2.6 7.0 0.00 0.00 0.00 78
20260505091529 57 267 4.3 10.4 0.00 0.00 0.00 79
20260505090056 57 259 4.3 7.8 0.00 0.00 0.00 79
20260505084531 56 242 3.5 6.1 0.00 0.00 0.00 77
20260505083029 58 216 2.6 3.5 0.00 0.00 0.00 75
20260505081530 59 242 3.5 6.1 0.00 0.00 0.00 74
20260505080029 59 244 3.5 7.0 0.00 0.00 0.00 73
20260505074530 59 242 3.5 6.1 0.00 0.00 0.00 72
20260505073031 59 245 3.5 7.0 0.00 0.00 0.00 70
20260505071530 60 266 1.7 6.1 0.00 0.00 0.00 69
20260505061532 62 258 4.3 10.4 0.00 0.00 0.00 63
20260505060029 62 248 5.2 7.8 0.00 0.00 0.00 61
20260505054530 63 247 4.3 7.0 0.00 0.00 0.00 59
20260505053106 63 230 3.5 7.8 0.00 0.00 0.00 59
20260505051531 63 210 4.3 7.8 0.00 0.00 0.00 57
20260505041638 66 249 3.5 6.1 0.00 0.00 0.00 54
20260505040107 67 253 4.3 7.8 0.00 0.00 0.00 54
20260505034605 67 252 6.1 13.0 0.00 0.00 0.00 55
20260505033030 67 248 4.3 10.4 0.00 0.00 0.00 56
20260505031527 68 254 4.3 7.8 0.00 0.00 0.00 55
20260505030032 69 261 4.3 8.7 0.00 0.00 0.00 54
20260505024531 71 280 5.2 7.8 0.00 0.00 0.00 52
20260505023030 72 271 6.1 8.7 0.00 0.00 0.00 50
20260505021530 72 280 7.0 13.0 0.00 0.00 0.00 49
20260505020029 73 287 7.8 12.2 0.00 0.00 0.00 48
20260505014530 74 287 7.8 13.0 0.00 0.00 0.00 46